VA3XLT-1 Weather Reports


time (UTC)temp
F
wind
direction
speed
knots
gust
knots
rain 1hr
in
rain 24hr
in
rain mn
in
humidity
%
barometer
mb
20260503194242 65 246 0.9 10.4 0.00 0.00 0.00 39 1009.9
20260503193742 63 205 0.9 12.2 0.00 0.00 0.00 40 1010.0
20260503193242 64 352 1.7 9.6 0.00 0.00 0.00 39 1010.2
20260503192742 64 331 7.0 14.8 0.00 0.00 0.00 40 1010.4
20260503192242 64 316 2.6 11.3 0.00 0.00 0.00 42 1010.3
20260503191742 65 18 1.7 8.7 0.00 0.00 0.00 41 1010.4
20260503191242 64 16 0.0 12.2 0.00 0.00 0.00 40 1010.5
20260503190742 64 268 4.3 11.3 0.00 0.00 0.00 37 1010.5
20260503190242 63 12 4.3 16.5 0.00 0.00 0.00 38 1010.6
20260503185742 64 219 8.7 10.4 0.00 0.00 0.00 39 1010.8
20260503185242 64 227 7.0 13.0 0.00 0.00 0.00 40 1010.9
20260503184742 63 292 0.9 9.6 0.00 0.00 0.00 39 1011.0
20260503184242 64 319 5.2 10.4 0.00 0.00 0.00 41 1011.0
20260503183742 64 164 10.4 10.4 0.00 0.00 0.00 38 1011.1
20260503183242 65 331 7.0 10.4 0.00 0.00 0.00 36 1011.1
20260503182742 66 210 1.7 13.0 0.00 0.00 0.00 38 1011.1
20260503182242 66 291 1.7 10.4 0.00 0.00 0.00 42 1011.1
20260503181742 64 2 1.7 13.0 0.00 0.00 0.00 43 1011.2
20260503181242 64 126 3.5 11.3 0.00 0.00 0.00 41 1011.1
20260503180742 64 295 3.5 9.6 0.00 0.00 0.00 41 1011.2
20260503180242 64 322 0.0 11.3 0.00 0.00 0.00 45 1011.3
20260503175743 63 222 3.5 8.7 0.00 0.00 0.00 42 1011.3
20260503175242 63 327 1.7 6.1 0.00 0.00 0.00 47 1011.4
20260503174742 62 316 5.2 8.7 0.00 0.00 0.00 47 1011.5
20260503174243 61 306 0.0 7.8 0.00 0.00 0.00 46 1011.6
20260503173743 61 317 1.7 11.3 0.00 0.00 0.00 46 1011.6
20260503173243 62 340 3.5 11.3 0.00 0.00 0.00 44 1011.6
20260503172743 62 323 1.7 6.1 0.00 0.00 0.00 43 1011.7
20260503172243 63 307 0.0 7.8 0.00 0.00 0.00 43 1011.7
20260503171743 64 246 1.7 12.2 0.00 0.00 0.00 42 1011.8
20260503171243 63 316 1.7 10.4 0.00 0.00 0.00 41 1011.8
20260503170743 63 343 4.3 9.6 0.00 0.00 0.00 43 1011.9
20260503170243 64 109 0.0 7.8 0.00 0.00 0.00 41 1011.9
20260503150743 57 300 1.7 8.7 0.00 0.00 0.00 51 1012.8
20260503150243 56 307 5.2 7.0 0.00 0.00 0.00 49 1012.9
20260503140243 54 7 3.5 9.6 0.00 0.00 0.00 57 1013.2
20260503131243 50 194 0.9 7.0 0.00 0.00 0.00 66 1013.5
20260503130743 50 219 4.3 6.1 0.00 0.00 0.00 66 1013.5
20260503130243 49 255 0.9 6.1 0.00 0.00 0.00 66 1013.6
20260503110743 38 63 0.0 0.0 0.00 0.00 0.00 76 1014.2
20260503110243 38 63 0.0 0.0 0.00 0.00 0.00 79 1014.3
20260503100243 37 63 0.0 0.0 0.00 0.00 0.00 78 1014.3
20260503090244 36 63 0.0 0.0 0.00 0.00 0.00 81 1014.5
20260503081244 37 63 0.0 0.0 0.00 0.00 0.00 80 1014.7
20260503080744 37 63 0.0 0.0 0.00 0.00 0.00 80 1014.6
20260503080244 37 63 0.0 0.0 0.00 0.00 0.00 79 1014.7
20260503072744 37 63 0.0 0.0 0.00 0.00 0.00 78 1014.7
20260503072244 37 63 0.0 0.0 0.00 0.00 0.00 78 1014.7
20260503071744 37 63 0.0 0.0 0.00 0.00 0.00 78 1014.6
20260503071244 37 63 0.0 0.0 0.00 0.00 0.00 79 1014.7
20260503070744 37 63 0.0 0.0 0.00 0.00 0.00 80 1014.7
20260503070244 37 63 0.0 0.0 0.00 0.00 0.00 80 1014.7
20260503060244 37 63 0.0 0.0 0.00 0.00 0.00 83 1015.2
20260503054744 37 63 0.0 0.0 0.00 0.00 0.00 83 1015.4
20260503054244 37 63 0.0 0.0 0.00 0.00 0.00 83 1015.5
20260503053744 37 63 0.0 0.0 0.00 0.00 0.00 83 1015.5
20260503053244 37 63 0.0 0.0 0.00 0.00 0.00 83 1015.5
20260503052744 37 63 0.0 0.0 0.00 0.00 0.00 83 1015.5
20260503052244 37 63 0.0 0.0 0.00 0.00 0.00 84 1015.5
20260503051744 37 63 0.0 0.0 0.00 0.00 0.00 84 1015.6
20260503051244 37 63 0.0 0.0 0.00 0.00 0.00 84 1015.6
20260503050744 37 63 0.0 0.0 0.00 0.00 0.00 85 1015.6
20260503050244 37 63 0.0 0.0 0.00 0.00 0.00 85 1015.7
20260503045744 37 63 0.0 0.0 0.00 0.00 0.00 85 1015.7
20260503045244 38 63 0.0 0.0 0.00 0.00 0.00 86 1015.8
20260503044744 38 63 0.0 0.0 0.00 0.00 0.00 86 1015.8
20260503044244 38 63 0.0 0.0 0.00 0.00 0.00 86 1015.8
20260503043744 38 63 0.0 0.0 0.00 0.00 0.00 85 1015.8
20260503043244 38 63 0.0 0.0 0.00 0.00 0.00 85 1015.8
20260503042744 38 63 0.0 0.0 0.00 0.00 0.00 85 1015.7
20260503042244 38 63 0.0 0.0 0.00 0.00 0.00 85 1015.8
20260503041744 38 63 0.0 0.0 0.00 0.00 0.00 85 1015.8
20260503041244 38 63 0.0 0.0 0.00 0.00 0.00 85 1015.9
20260503040744 38 63 0.0 0.0 0.00 0.00 0.00 84 1015.9
20260503040244 39 63 0.0 0.0 0.00 0.00 0.00 84 1016.0
20260503035744 39 63 0.0 0.0 0.00 0.00 0.00 83 1016.0
20260503035244 39 63 0.0 0.0 0.00 0.00 0.00 83 1016.0
20260503034744 39 63 0.0 0.0 0.00 0.00 0.00 83 1016.0
20260503034244 39 63 0.0 0.0 0.00 0.00 0.00 82 1016.1
20260503033744 39 63 0.0 0.0 0.00 0.00 0.00 82 1016.1
20260503033244 39 63 0.0 0.0 0.00 0.00 0.00 82 1016.2
20260503032744 39 63 0.0 0.0 0.00 0.00 0.00 81 1016.2
20260503032244 40 63 0.0 0.0 0.00 0.00 0.00 80 1016.3
20260503031744 40 63 0.0 0.0 0.00 0.00 0.00 80 1016.2
20260503031244 40 63 0.0 0.0 0.00 0.00 0.00 79 1016.3
20260503030744 40 63 0.0 0.0 0.00 0.00 0.00 78 1016.3
20260503030244 40 63 0.0 0.0 0.00 0.00 0.00 77 1016.3
20260503025744 40 63 0.0 0.0 0.00 0.00 0.00 77 1016.3
20260503025244 40 63 0.0 0.0 0.00 0.00 0.00 77 1016.4
20260503024744 41 63 0.0 0.0 0.00 0.00 0.00 76 1016.4
20260503024244 41 63 0.0 0.0 0.00 0.00 0.00 75 1016.5
20260503023744 41 63 0.0 0.0 0.00 0.00 0.00 75 1016.6
20260503023244 41 63 0.0 0.0 0.00 0.00 0.00 74 1016.6
20260503022744 42 63 0.0 0.0 0.00 0.00 0.00 73 1016.7
20260503022244 42 63 0.0 0.0 0.00 0.00 0.00 74 1016.6
20260503021744 42 63 0.0 0.0 0.00 0.00 0.00 74 1016.6
20260503021244 42 63 0.0 0.0 0.00 0.00 0.00 74 1016.6
20260503020744 42 63 0.0 0.0 0.00 0.00 0.00 73 1016.7
20260503020244 42 63 0.0 0.0 0.00 0.00 0.00 72 1016.6
20260503015744 43 63 0.0 0.0 0.00 0.00 0.00 72 1016.6
20260503015244 43 63 0.0 0.0 0.00 0.00 0.00 72 1016.6
20260503014744 43 63 0.0 0.0 0.00 0.00 0.00 72 1016.7
20260503014244 43 63 0.0 0.0 0.00 0.00 0.00 71 1016.7
20260503013744 44 63 0.0 0.0 0.00 0.00 0.00 71 1016.7
20260503013244 44 63 0.0 0.0 0.00 0.00 0.00 69 1016.7
20260503012744 44 63 0.0 0.0 0.00 0.00 0.00 68 1016.7
20260503012244 44 63 0.0 0.0 0.00 0.00 0.00 68 1016.7
20260503011744 45 63 0.0 0.0 0.00 0.00 0.00 66 1016.7
20260503011244 45 63 0.0 0.0 0.00 0.00 0.00 65 1016.7
20260503010744 45 63 0.0 0.0 0.00 0.00 0.00 64 1016.7
20260503010244 46 63 0.0 0.0 0.00 0.00 0.00 63 1016.7
20260503005744 46 63 0.0 0.0 0.00 0.00 0.00 63 1016.7
20260503005244 47 63 0.0 0.0 0.00 0.00 0.00 63 1016.8
20260503004744 47 63 0.0 0.0 0.00 0.00 0.00 63 1016.8
20260503004244 47 63 0.0 0.0 0.00 0.00 0.00 63 1016.8
20260503003745 47 63 0.0 0.0 0.00 0.00 0.00 61 1016.8
20260503003244 47 63 0.0 0.0 0.00 0.00 0.00 60 1016.8
20260503002744 47 63 0.0 0.0 0.00 0.00 0.00 60 1016.8
20260503002245 47 63 0.0 0.0 0.00 0.00 0.00 59 1016.9
20260503001745 48 63 0.0 0.0 0.00 0.00 0.00 57 1016.9
20260503001245 48 63 0.0 0.0 0.00 0.00 0.00 58 1016.9
20260503000745 48 63 0.0 0.0 0.00 0.00 0.00 55 1017.0
20260503000245 48 63 0.0 0.0 0.00 0.00 0.00 56 1017.0
20260502235745 48 63 0.0 0.0 0.00 0.00 0.00 54 1017.0
20260502235245 48 63 0.0 0.0 0.00 0.00 0.00 54 1017.0
20260502234745 49 63 0.0 1.7 0.00 0.00 0.00 56 1016.8
20260502234245 49 198 0.0 0.0 0.00 0.00 0.00 58 1017.0
20260502233745 49 198 0.0 0.0 0.00 0.00 0.00 54 1017.0
20260502233245 49 198 0.0 0.0 0.00 0.00 0.00 54 1017.0
20260502232745 49 198 0.0 6.1 0.00 0.00 0.00 49 1016.9
20260502232245 50 33 0.0 2.6 0.00 0.00 0.00 52 1017.0
20260502231745 50 139 0.0 0.0 0.00 0.00 0.00 55 1017.0
20260502231245 50 139 0.0 0.0 0.00 0.00 0.00 56 1017.1
20260502230745 50 139 0.0 0.0 0.00 0.00 0.00 54 1017.2
20260502230245 50 139 0.0 0.0 0.00 0.00 0.00 53 1017.1
20260502225745 50 139 0.0 0.0 0.00 0.00 0.00 54 1017.0
20260502225245 50 139 0.0 0.0 0.00 0.00 0.00 52 1017.0
20260502224745 50 139 0.0 0.0 0.00 0.00 0.00 50 1017.1
20260502224245 50 139 0.0 0.0 0.00 0.00 0.00 54 1017.1
20260502223745 50 139 0.0 0.0 0.00 0.00 0.00 54 1017.2
20260502223245 50 139 0.0 0.0 0.00 0.00 0.00 51 1017.2
20260502222745 50 139 0.0 0.0 0.00 0.00 0.00 50 1017.1
20260502222245 50 139 0.0 0.0 0.00 0.00 0.00 50 1017.2
20260502221745 50 139 0.0 0.0 0.00 0.00 0.00 51 1017.2
20260502221245 50 139 0.0 0.0 0.00 0.00 0.00 51 1017.3
20260502220745 50 139 0.0 0.0 0.00 0.00 0.00 48 1017.2
20260502220245 50 151 0.0 1.7 0.00 0.00 0.00 55 1017.2
20260502215745 50 315 0.0 0.0 0.00 0.00 0.00 56 1017.3
20260502215245 49 180 0.0 1.7 0.00 0.00 0.00 56 1017.3
20260502214745 49 119 0.0 1.7 0.00 0.00 0.00 53 1017.2
20260502214245 50 147 0.0 1.7 0.00 0.00 0.00 53 1017.2
20260502213745 50 156 0.0 2.6 0.00 0.00 0.00 52 1017.2
20260502213245 50 140 0.0 0.0 0.00 0.00 0.00 55 1017.3
20260502212745 50 140 0.0 0.0 0.00 0.00 0.00 55 1017.3
20260502212245 51 140 0.0 0.0 0.00 0.00 0.00 52 1017.2
20260502211745 52 140 0.0 1.7 0.00 0.00 0.00 49 1017.2
20260502211245 52 90 0.0 0.9 0.00 0.00 0.00 49 1017.3
20260502210745 52 28 0.0 1.7 0.00 0.00 0.00 51 1017.4
20260502210245 52 292 0.0 3.5 0.00 0.00 0.00 51 1017.4
20260502205745 51 292 2.6 3.5 0.00 0.00 0.00 50 1017.3
20260502205245 51 323 0.0 3.5 0.00 0.00 0.00 52 1017.3
20260502204745 51 350 2.6 4.3 0.00 0.00 0.00 53 1017.5
20260502204245 51 8 0.9 3.5 0.00 0.00 0.00 52 1017.5
20260502203745 51 352 0.0 7.0 0.00 0.00 0.00 48 1017.5
20260502203245 52 305 0.0 4.3 0.00 0.00 0.00 48 1017.5
20260502202745 52 322 0.9 6.1 0.00 0.00 0.00 52 1017.6
20260502202245 52 250 0.0 4.3 0.00 0.00 0.00 50 1017.6
20260502201745 52 358 2.6 7.8 0.00 0.00 0.00 50 1017.6
20260502201245 53 12 1.7 5.2 0.00 0.00 0.00 48 1017.7
20260502200745 53 272 3.5 6.1 0.00 0.00 0.00 47 1017.8
20260502200245 53 298 3.5 7.8 0.00 0.00 0.00 50 1017.8
20260502195745 53 337 0.0 5.2 0.00 0.00 0.00 49 1017.9
20260502195245 53 11 1.7 3.5 0.00 0.00 0.00 47 1017.9
20260502194745 53 313 1.7 4.3 0.00 0.00 0.00 48 1017.9